Weather Roundup
Issued by NWS Springfield, MO

Home | Current Version | Previous Version | Text Only | Print | Product List | Glossary On
Versions: 1 2 3 4 5 6 7 8 9 10 11 12 13 14 15 16 17 18 19 20 21 22 23 24 25 26 27 28 29 30 31 32 33 34 35 36 37 38 39 40 41 42 43 44 45 46 47 48 49 50
000
NZUS99 KSGF 011159
HRRSGF

HOURLY WEATHER
NATIONAL WEATHER SERVICE SPRINGFIELD MO
700 AM CDT WED JUL 01 2015

......SGF CWA......

CITY           SKY/WX    TMP DP  RH WIND       PRES   REMARKS
SPRINGFIELD    CLOUDY    68  64  87 SE13      29.95F
6HR MIN TEMP:  68; 6HR MAX TEMP:  77; 6HR PCP:  0.25;

JOPLIN         CLOUDY    79  71  76 SW15      29.89S
6HR MIN TEMP:  79; 6HR MAX TEMP:  80;

WEST PLAINS    LGT RAIN  71  67  87 MISG      30.04R
6HR MIN TEMP:  71; 6HR MAX TEMP:  75; 6HR PCP:  0.14;

ROLLA          RAIN      68  68 100 S6        29.94F FOG
6HR MIN TEMP:  68; 6HR MAX TEMP:  73; 6HR PCP:  0.55;

OSAGE BEACH    CLOUDY    70  66  88 S7        29.97R
BRANSON        CLOUDY    77  72  83 N10       29.99R

......SURROUNDING SGF CWA......

CITY           SKY/WX    TMP DP  RH WIND       PRES   REMARKS
CHANUTE        CLOUDY    78  69  73 CALM      29.88R
PARSONS        MOCLDY    78  72  81 S5        29.88R
COFFEYVILLE    PTCLDY    76  72  87 S8        29.86F
EMPORIA        CLOUDY    77  65  66 SE5       29.87R
SILOAM SPRINGS PTCLDY    73  66  78 S8        29.95F
HARRISON AR    CLOUDY    78  69  73 W8        29.96R
NEAR YELLVILLE CLOUDY    72  70  94 N12       29.95R

......KANSAS AND MISSOURI......

CITY           SKY/WX    TMP DP  RH WIND       PRES   REMARKS
KANSAS CTY INT LGT RAIN  68  67  96 SE15      29.86F FOG
DOWNTOWN KC    LGT RAIN  70  67  90 SW8       29.88F FOG
COLUMBIA       RAIN      69  67  93 SW12      29.94R FOG
SEDALIA        LGT RAIN  69  67  93 S12       29.93F FOG
ST JOSEPH      LGT RAIN  69  67  93 SE14      29.83F FOG
ST LOUIS       CLOUDY    73  69  87 SW9       29.91F FOG
SPIRIT OF STL  CLOUDY    70  70 100 S6        29.90F FOG
KIRKSVILLE     CLOUDY    69  69 100 E3        29.90F FOG
WICHITA        MOCLDY    74  64  71 S8        29.85S
TOPEKA         LGT RAIN  70  68  93 SE13      29.87S FOG
OLATHE         CLOUDY    67  66  97 E9        29.91F

......TENNESSEE......

CITY           SKY/WX    TMP DP  RH WIND       PRES   REMARKS
MEMPHIS        CLOUDY    76  71  85 SW6       29.96S
NASHVILLE      CLOUDY    74  71  91 CALM      29.98R

......ARKANSAS.......

CITY           SKY/WX    TMP DP  RH WIND       PRES   REMARKS
FAYETTEVILLE   MOCLDY    73  71  93 S6        29.96S
FT SMITH       MOCLDY    76  69  79 S3        29.93R
LITTLE ROCK    CLOUDY    74  69  85 SW6       29.95R

......OKLAHOMA.......

CITY           SKY/WX    TMP DP  RH WIND       PRES   REMARKS
TULSA          CLOUDY    79  71  76 S10       29.90R
PONCA CITY     MOCLDY    78  68  71 SW9       29.88R
MCALESTER      PTCLDY    76  71  85 SW9       29.96R
OKLAHOMA CITY  MOCLDY    72  69  90 S9        29.94R

......IOWA............

CITY           SKY/WX    TMP DP  RH WIND       PRES   REMARKS
DES MOINES     PTSUNNY   68  61  78 E7        29.89S
QUAD CITIES    MOSUNNY   63  59  87 E7        29.92R

......ILLINOIS........

CITY           SKY/WX    TMP DP  RH WIND       PRES   REMARKS
QUINCY         CLOUDY    70  66  87 W3        29.90S FOG
CHICAGO        CLOUDY    57  51  80 NE3       29.97R




USA.gov is the U.S. government's official web portal to all federal, state and local government web resources and services.